owner,sensor,date,latitude,longitude,vertical_datum,mass_concentration_of_oxygen_in_sea_water,qcFlag 
SCCF RECON,ioos:station:SCCF:51:1,2012-01-01T00:00:00Z,26.5545,-82.1715,2.11,7.79,1111122 
SCCF RECON,ioos:station:SCCF:51:1,2012-01-01T01:00:00Z,26.5545,-82.1715,2.07,7.81,1111122 
SCCF RECON,ioos:station:SCCF:51:1,2012-01-01T02:00:00Z,26.5545,-82.1715,2.01,7.73,1111122 
SCCF RECON,ioos:station:SCCF:51:1,2012-01-01T03:00:00Z,26.5545,-82.1715,1.95,7.6,1111122 
SCCF RECON,ioos:station:SCCF:51:1,2012-01-01T04:00:00Z,26.5545,-82.1715,1.89,8.12,1111122 
SCCF RECON,ioos:station:SCCF:51:1,2012-01-01T05:00:00Z,26.5545,-82.1715,1.84,8.02,1111122 
SCCF RECON,ioos:station:SCCF:51:1,2012-01-01T06:00:00Z,26.5545,-82.1715,1.801,8.06,1111122 
SCCF RECON,ioos:station:SCCF:51:1,2012-01-01T07:00:00Z,26.5545,-82.1715,1.81,7.78,1111122 
SCCF RECON,ioos:station:SCCF:51:1,2012-01-01T08:00:00Z,26.5545,-82.1715,1.85,7.76,1111122 
SCCF RECON,ioos:station:SCCF:51:1,2012-01-01T09:00:00Z,26.5545,-82.1715,1.899,7.71,1111122 
SCCF RECON,ioos:station:SCCF:51:1,2012-01-01T10:00:00Z,26.5545,-82.1715,1.957,7.64,1111122 
SCCF RECON,ioos:station:SCCF:51:1,2012-01-01T11:00:00Z,26.5545,-82.1715,1.975,7.5,1111122 
SCCF RECON,ioos:station:SCCF:51:1,2012-01-01T12:00:00Z,26.5545,-82.1715,1.969,7.48,1111122 
SCCF RECON,ioos:station:SCCF:51:1,2012-01-01T13:00:00Z,26.5545,-82.1715,1.94,7.69,1111122 
SCCF RECON,ioos:station:SCCF:51:1,2012-01-01T14:00:00Z,26.5545,-82.1715,1.922,7.63,1111122 
SCCF RECON,ioos:station:SCCF:51:1,2012-01-01T15:00:00Z,26.5545,-82.1715,1.891,7.77,1111122 
SCCF RECON,ioos:station:SCCF:51:1,2012-01-01T16:00:00Z,26.5545,-82.1715,1.861,7.83,1111122 
SCCF RECON,ioos:station:SCCF:51:1,2012-01-01T17:00:00Z,26.5545,-82.1715,1.852,7.91,1111122 
SCCF RECON,ioos:station:SCCF:51:1,2012-01-01T18:00:00Z,26.5545,-82.1715,1.86,7.95,1111122 
SCCF RECON,ioos:station:SCCF:51:1,2012-01-01T19:00:00Z,26.5545,-82.1715,1.874,8.26,1111122 
SCCF RECON,ioos:station:SCCF:51:1,2012-01-01T20:00:00Z,26.5545,-82.1715,1.918,8.5,1111122 
SCCF RECON,ioos:station:SCCF:51:1,2012-01-01T21:00:00Z,26.5545,-82.1715,1.981,8.46,1111122 
SCCF RECON,ioos:station:SCCF:51:1,2012-01-01T22:00:00Z,26.5545,-82.1715,2.05,7.61,1111122 
SCCF RECON,ioos:station:SCCF:51:1,2012-01-01T23:00:00Z,26.5545,-82.1715,2.093,7.67,1111122 
SCCF RECON,ioos:station:SCCF:51:1,2012-01-02T00:00:00Z,26.5545,-82.1715,2.11,7.67,1111122 
SCCF RECON,ioos:station:SCCF:51:1,2012-01-02T01:00:00Z,26.5545,-82.1715,2.079,8.1,1111122 
SCCF RECON,ioos:station:SCCF:51:1,2012-01-02T02:00:00Z,26.5545,-82.1715,2.01,8.35,1111122 
SCCF RECON,ioos:station:SCCF:51:1,2012-01-02T03:00:00Z,26.5545,-82.1715,1.94,8.07,1111122 
SCCF RECON,ioos:station:SCCF:51:1,2012-01-02T04:00:00Z,26.5545,-82.1715,1.86,8.05,1111122 
SCCF RECON,ioos:station:SCCF:51:1,2012-01-02T05:00:00Z,26.5545,-82.1715,1.78,7.97,1111122 
SCCF RECON,ioos:station:SCCF:51:1,2012-01-02T06:00:00Z,26.5545,-82.1715,1.72,7.96,1111122 
SCCF RECON,ioos:station:SCCF:51:1,2012-01-02T07:00:00Z,26.5545,-82.1715,1.67,7.97,1111122 
SCCF RECON,ioos:station:SCCF:51:1,2012-01-02T08:00:00Z,26.5545,-82.1715,1.65,7.9,1111122 
SCCF RECON,ioos:station:SCCF:51:1,2012-01-02T09:00:00Z,26.5545,-82.1715,1.7,7.79,1111122 
SCCF RECON,ioos:station:SCCF:51:1,2012-01-02T10:00:00Z,26.5545,-82.1715,1.757,7.85,1111122 
SCCF RECON,ioos:station:SCCF:51:1,2012-01-02T11:00:00Z,26.5545,-82.1715,1.835,7.68,1111122 
SCCF RECON,ioos:station:SCCF:51:1,2012-01-02T12:00:00Z,26.5545,-82.1715,1.87,6.95,1111122 
SCCF RECON,ioos:station:SCCF:51:1,2012-01-02T13:00:00Z,26.5545,-82.1715,1.89,7.05,1111122 
SCCF RECON,ioos:station:SCCF:51:1,2012-01-02T14:00:00Z,26.5545,-82.1715,1.869,7.58,1111122 
SCCF RECON,ioos:station:SCCF:51:1,2012-01-02T15:00:00Z,26.5545,-82.1715,1.889,7.64,1111122 
SCCF RECON,ioos:station:SCCF:51:1,2012-01-02T16:00:00Z,26.5545,-82.1715,1.874,7.76,1111122 
SCCF RECON,ioos:station:SCCF:51:1,2012-01-02T17:00:00Z,26.5545,-82.1715,1.903,7.71,1111122 
SCCF RECON,ioos:station:SCCF:51:1,2012-01-02T18:00:00Z,26.5545,-82.1715,1.913,7.66,1111122 
SCCF RECON,ioos:station:SCCF:51:1,2012-01-02T19:00:00Z,26.5545,-82.1715,1.874,7.8,1111122 
SCCF RECON,ioos:station:SCCF:51:1,2012-01-02T20:00:00Z,26.5545,-82.1715,1.879,7.85,1111122 
SCCF RECON,ioos:station:SCCF:51:1,2012-01-02T21:00:00Z,26.5545,-82.1715,1.936,7.73,1111122 
SCCF RECON,ioos:station:SCCF:51:1,2012-01-02T22:00:00Z,26.5545,-82.1715,1.964,7.84,1111122 
SCCF RECON,ioos:station:SCCF:51:1,2012-01-02T23:00:00Z,26.5545,-82.1715,1.987,7.72,1111122 
SCCF RECON,ioos:station:SCCF:51:1,2012-01-03T00:00:00Z,26.5545,-82.1715,1.996,7.58,1111122 
SCCF RECON,ioos:station:SCCF:51:1,2012-01-03T01:00:00Z,26.5545,-82.1715,1.976,7.44,1111122 
SCCF RECON,ioos:station:SCCF:51:1,2012-01-03T02:00:00Z,26.5545,-82.1715,1.948,7.33,1111122 
SCCF RECON,ioos:station:SCCF:51:1,2012-01-03T03:00:00Z,26.5545,-82.1715,1.885,7.26,1111122 
SCCF RECON,ioos:station:SCCF:51:1,2012-01-03T04:00:00Z,26.5545,-82.1715,1.808,7.16,1111122 
SCCF RECON,ioos:station:SCCF:51:1,2012-01-03T05:00:00Z,26.5545,-82.1715,1.745,7.12,1111122 
SCCF RECON,ioos:station:SCCF:51:1,2012-01-03T06:00:00Z,26.5545,-82.1715,1.679,7.13,1111122 
SCCF RECON,ioos:station:SCCF:51:1,2012-01-03T07:00:00Z,26.5545,-82.1715,1.631,7.14,1111122 
SCCF RECON,ioos:station:SCCF:51:1,2012-01-03T08:00:00Z,26.5545,-82.1715,1.603,7.15,1111122 
SCCF RECON,ioos:station:SCCF:51:1,2012-01-03T09:00:00Z,26.5545,-82.1715,1.587,7.15,1111122 
SCCF RECON,ioos:station:SCCF:51:1,2012-01-03T10:00:00Z,26.5545,-82.1715,1.597,7.12,1111122 
SCCF RECON,ioos:station:SCCF:51:1,2012-01-03T11:00:00Z,26.5545,-82.1715,1.652,7.18,1111122 
SCCF RECON,ioos:station:SCCF:51:1,2012-01-03T12:00:00Z,26.5545,-82.1715,1.683,7.22,1111122 
SCCF RECON,ioos:station:SCCF:51:1,2012-01-03T13:00:00Z,26.5545,-82.1715,1.699,7.24,1111122 
SCCF RECON,ioos:station:SCCF:51:1,2012-01-03T14:00:00Z,26.5545,-82.1715,1.699,7.28,1111122 
SCCF RECON,ioos:station:SCCF:51:1,2012-01-03T15:00:00Z,26.5545,-82.1715,1.657,7.34,1111122 
SCCF RECON,ioos:station:SCCF:51:1,2012-01-03T16:00:00Z,26.5545,-82.1715,1.61,7.41,1111122 
SCCF RECON,ioos:station:SCCF:51:1,2012-01-03T17:00:00Z,26.5545,-82.1715,1.577,7.48,1111122 
SCCF RECON,ioos:station:SCCF:51:1,2012-01-03T18:00:00Z,26.5545,-82.1715,1.573,7.53,1111122 
SCCF RECON,ioos:station:SCCF:51:1,2012-01-03T19:00:00Z,26.5545,-82.1715,1.598,7.62,1111122 
SCCF RECON,ioos:station:SCCF:51:1,2012-01-03T20:00:00Z,26.5545,-82.1715,1.632,7.66,1111122 
SCCF RECON,ioos:station:SCCF:51:1,2012-01-03T21:00:00Z,26.5545,-82.1715,1.69,7.68,1111122 
SCCF RECON,ioos:station:SCCF:51:1,2012-01-03T22:00:00Z,26.5545,-82.1715,1.741,7.69,1111122 
SCCF RECON,ioos:station:SCCF:51:1,2012-01-03T23:00:00Z,26.5545,-82.1715,1.789,7.72,1111122 
SCCF RECON,ioos:station:SCCF:51:1,2012-01-04T00:00:00Z,26.5545,-82.1715,1.847,7.86,1111122 
SCCF RECON,ioos:station:SCCF:51:1,2012-01-04T01:00:00Z,26.5545,-82.1715,1.898,7.8,1111122 
SCCF RECON,ioos:station:SCCF:51:1,2012-01-04T02:00:00Z,26.5545,-82.1715,1.945,7.6,1111122 
SCCF RECON,ioos:station:SCCF:51:1,2012-01-04T03:00:00Z,26.5545,-82.1715,1.936,7.56,1111122 
SCCF RECON,ioos:station:SCCF:51:1,2012-01-04T04:00:00Z,26.5545,-82.1715,1.901,7.65,1111122 
SCCF RECON,ioos:station:SCCF:51:1,2012-01-04T05:00:00Z,26.5545,-82.1715,1.839,7.65,1111122 
SCCF RECON,ioos:station:SCCF:51:1,2012-01-04T06:00:00Z,26.5545,-82.1715,1.761,7.56,1111122 
SCCF RECON,ioos:station:SCCF:51:1,2012-01-04T07:00:00Z,26.5545,-82.1715,1.666,7.52,1111122 
SCCF RECON,ioos:station:SCCF:51:1,2012-01-04T08:00:00Z,26.5545,-82.1715,1.581,7.53,1111122 
SCCF RECON,ioos:station:SCCF:51:1,2012-01-04T09:00:00Z,26.5545,-82.1715,1.531,7.54,1111122 
SCCF RECON,ioos:station:SCCF:51:1,2012-01-04T10:00:00Z,26.5545,-82.1715,1.536,7.58,1111122 
SCCF RECON,ioos:station:SCCF:51:1,2012-01-04T11:00:00Z,26.5545,-82.1715,1.59,7.62,1111122 
SCCF RECON,ioos:station:SCCF:51:1,2012-01-04T12:00:00Z,26.5545,-82.1715,1.655,7.65,1111122 
SCCF RECON,ioos:station:SCCF:51:1,2012-01-04T13:00:00Z,26.5545,-82.1715,1.739,7.68,1111122 
SCCF RECON,ioos:station:SCCF:51:1,2012-01-04T14:00:00Z,26.5545,-82.1715,1.818,7.74,1111122 
SCCF RECON,ioos:station:SCCF:51:1,2012-01-04T15:00:00Z,26.5545,-82.1715,1.874,7.64,1111122 
SCCF RECON,ioos:station:SCCF:51:1,2012-01-04T16:00:00Z,26.5545,-82.1715,1.923,7.78,1111122 
SCCF RECON,ioos:station:SCCF:51:1,2012-01-04T17:00:00Z,26.5545,-82.1715,1.96,7.67,1111122 
SCCF RECON,ioos:station:SCCF:51:1,2012-01-04T18:00:00Z,26.5545,-82.1715,1.961,7.69,1111122 
SCCF RECON,ioos:station:SCCF:51:1,2012-01-04T19:00:00Z,26.5545,-82.1715,1.946,7.83,1111122 
SCCF RECON,ioos:station:SCCF:51:1,2012-01-04T20:00:00Z,26.5545,-82.1715,1.936,7.95,1111122 
SCCF RECON,ioos:station:SCCF:51:1,2012-01-04T21:00:00Z,26.5545,-82.1715,1.964,8.03,1111122 
SCCF RECON,ioos:station:SCCF:51:1,2012-01-04T22:00:00Z,26.5545,-82.1715,2.011,8.04,1111122 
SCCF RECON,ioos:station:SCCF:51:1,2012-01-04T23:00:00Z,26.5545,-82.1715,2.07,8.24,1111122 
SCCF RECON,ioos:station:SCCF:51:1,2012-01-05T00:00:00Z,26.5545,-82.1715,2.118,8.32,1111122 
SCCF RECON,ioos:station:SCCF:51:1,2012-01-05T01:00:00Z,26.5545,-82.1715,2.148,8.26,1111122 
SCCF RECON,ioos:station:SCCF:51:1,2012-01-05T02:00:00Z,26.5545,-82.1715,2.146,7.96,1111122 
SCCF RECON,ioos:station:SCCF:51:1,2012-01-05T03:00:00Z,26.5545,-82.1715,2.132,7.93,1111122 
SCCF RECON,ioos:station:SCCF:51:1,2012-01-05T04:00:00Z,26.5545,-82.1715,2.083,8.09,1111122 
SCCF RECON,ioos:station:SCCF:51:1,2012-01-05T05:00:00Z,26.5545,-82.1715,2.008,8.1,1111122 
SCCF RECON,ioos:station:SCCF:51:1,2012-01-05T06:00:00Z,26.5545,-82.1715,1.907,8.05,1111122 
SCCF RECON,ioos:station:SCCF:51:1,2012-01-05T07:00:00Z,26.5545,-82.1715,1.79,7.91,1111122 
SCCF RECON,ioos:station:SCCF:51:1,2012-01-05T08:00:00Z,26.5545,-82.1715,1.689,7.65,1111122 
SCCF RECON,ioos:station:SCCF:51:1,2012-01-05T09:00:00Z,26.5545,-82.1715,1.595,7.87,1111122 
SCCF RECON,ioos:station:SCCF:51:1,2012-01-05T10:00:00Z,26.5545,-82.1715,1.532,7.95,1111122 
SCCF RECON,ioos:station:SCCF:51:1,2012-01-05T11:00:00Z,26.5545,-82.1715,1.538,7.99,1111122 
SCCF RECON,ioos:station:SCCF:51:1,2012-01-05T12:00:00Z,26.5545,-82.1715,1.612,7.98,1111122 
SCCF RECON,ioos:station:SCCF:51:1,2012-01-05T13:00:00Z,26.5545,-82.1715,1.71,7.94,1111122 
SCCF RECON,ioos:station:SCCF:51:1,2012-01-05T14:00:00Z,26.5545,-82.1715,1.82,7.83,1111122 
SCCF RECON,ioos:station:SCCF:51:1,2012-01-05T15:00:00Z,26.5545,-82.1715,1.909,7.75,1111122 
SCCF RECON,ioos:station:SCCF:51:1,2012-01-05T16:00:00Z,26.5545,-82.1715,1.967,7.91,1111122 
SCCF RECON,ioos:station:SCCF:51:1,2012-01-05T17:00:00Z,26.5545,-82.1715,1.998,7.89,1111122 
SCCF RECON,ioos:station:SCCF:51:1,2012-01-05T18:00:00Z,26.5545,-82.1715,1.962,7.87,1111122 
SCCF RECON,ioos:station:SCCF:51:1,2012-01-05T19:00:00Z,26.5545,-82.1715,1.905,8.0,1111122 
SCCF RECON,ioos:station:SCCF:51:1,2012-01-05T20:00:00Z,26.5545,-82.1715,1.869,8.04,1111122 
SCCF RECON,ioos:station:SCCF:51:1,2012-01-05T21:00:00Z,26.5545,-82.1715,1.895,8.19,1111122 
SCCF RECON,ioos:station:SCCF:51:1,2012-01-05T22:00:00Z,26.5545,-82.1715,1.962,8.09,1111122 
SCCF RECON,ioos:station:SCCF:51:1,2012-01-05T23:00:00Z,26.5545,-82.1715,2.04,8.35,1111122 
SCCF RECON,ioos:station:SCCF:51:1,2012-01-06T00:00:00Z,26.5545,-82.1715,2.1,7.85,1111122 
SCCF RECON,ioos:station:SCCF:51:1,2012-01-06T01:00:00Z,26.5545,-82.1715,2.15,7.76,1111122 
SCCF RECON,ioos:station:SCCF:51:1,2012-01-06T02:00:00Z,26.5545,-82.1715,2.192,7.8,1111122 
SCCF RECON,ioos:station:SCCF:51:1,2012-01-06T03:00:00Z,26.5545,-82.1715,2.212,7.77,1111122 
SCCF RECON,ioos:station:SCCF:51:1,2012-01-06T04:00:00Z,26.5545,-82.1715,2.199,7.69,1111122 
SCCF RECON,ioos:station:SCCF:51:1,2012-01-06T05:00:00Z,26.5545,-82.1715,2.14,8.02,1111122 
SCCF RECON,ioos:station:SCCF:51:1,2012-01-06T06:00:00Z,26.5545,-82.1715,2.047,7.86,1111122 
SCCF RECON,ioos:station:SCCF:51:1,2012-01-06T07:00:00Z,26.5545,-82.1715,1.91,7.99,1111122 
SCCF RECON,ioos:station:SCCF:51:1,2012-01-06T08:00:00Z,26.5545,-82.1715,1.781,8.11,1111122 
SCCF RECON,ioos:station:SCCF:51:1,2012-01-06T09:00:00Z,26.5545,-82.1715,1.672,8.15,1111122 
SCCF RECON,ioos:station:SCCF:51:1,2012-01-06T10:00:00Z,26.5545,-82.1715,1.59,8.15,1111122 
SCCF RECON,ioos:station:SCCF:51:1,2012-01-06T11:00:00Z,26.5545,-82.1715,1.565,8.14,1111122 
SCCF RECON,ioos:station:SCCF:51:1,2012-01-06T12:00:00Z,26.5545,-82.1715,1.635,8.24,1111122 
SCCF RECON,ioos:station:SCCF:51:1,2012-01-06T13:00:00Z,26.5545,-82.1715,1.734,8.04,1111122 
SCCF RECON,ioos:station:SCCF:51:1,2012-01-06T14:00:00Z,26.5545,-82.1715,1.858,7.74,1111122 
SCCF RECON,ioos:station:SCCF:51:1,2012-01-06T15:00:00Z,26.5545,-82.1715,1.961,7.85,1111122 
SCCF RECON,ioos:station:SCCF:51:1,2012-01-06T16:00:00Z,26.5545,-82.1715,2.035,7.79,1111122 
SCCF RECON,ioos:station:SCCF:51:1,2012-01-06T17:00:00Z,26.5545,-82.1715,2.087,7.85,1111122 
SCCF RECON,ioos:station:SCCF:51:1,2012-01-06T18:00:00Z,26.5545,-82.1715,2.1,7.88,1111122 
SCCF RECON,ioos:station:SCCF:51:1,2012-01-06T19:00:00Z,26.5545,-82.1715,2.069,8.13,1111122 
SCCF RECON,ioos:station:SCCF:51:1,2012-01-06T20:00:00Z,26.5545,-82.1715,2.019,8.3,1111122 
SCCF RECON,ioos:station:SCCF:51:1,2012-01-06T21:00:00Z,26.5545,-82.1715,1.991,8.47,1111122 
SCCF RECON,ioos:station:SCCF:51:1,2012-01-06T22:00:00Z,26.5545,-82.1715,2.006,8.29,1111122 
SCCF RECON,ioos:station:SCCF:51:1,2012-01-06T23:00:00Z,26.5545,-82.1715,2.061,8.33,1111122 
SCCF RECON,ioos:station:SCCF:51:1,2012-01-07T00:00:00Z,26.5545,-82.1715,2.13,8.25,1111122 
SCCF RECON,ioos:station:SCCF:51:1,2012-01-07T01:00:00Z,26.5545,-82.1715,2.21,8.26,1111122 
SCCF RECON,ioos:station:SCCF:51:1,2012-01-07T02:00:00Z,26.5545,-82.1715,2.267,7.97,1111122 
SCCF RECON,ioos:station:SCCF:51:1,2012-01-07T03:00:00Z,26.5545,-82.1715,2.289,7.76,1111122 
SCCF RECON,ioos:station:SCCF:51:1,2012-01-07T04:00:00Z,26.5545,-82.1715,2.28,7.65,1111122 
SCCF RECON,ioos:station:SCCF:51:1,2012-01-07T05:00:00Z,26.5545,-82.1715,2.223,8.13,1111122 
SCCF RECON,ioos:station:SCCF:51:1,2012-01-07T06:00:00Z,26.5545,-82.1715,2.14,8.04,1111122 
SCCF RECON,ioos:station:SCCF:51:1,2012-01-07T07:00:00Z,26.5545,-82.1715,2.01,8.28,1111122 
SCCF RECON,ioos:station:SCCF:51:1,2012-01-07T08:00:00Z,26.5545,-82.1715,1.86,8.45,1111122 
SCCF RECON,ioos:station:SCCF:51:1,2012-01-07T09:00:00Z,26.5545,-82.1715,1.73,8.55,1111122 
SCCF RECON,ioos:station:SCCF:51:1,2012-01-07T10:00:00Z,26.5545,-82.1715,1.61,8.53,1111122 
SCCF RECON,ioos:station:SCCF:51:1,2012-01-07T11:00:00Z,26.5545,-82.1715,1.51,8.41,1111122 
SCCF RECON,ioos:station:SCCF:51:1,2012-01-07T12:00:00Z,26.5545,-82.1715,1.478,8.38,1111122 
SCCF RECON,ioos:station:SCCF:51:1,2012-01-07T13:00:00Z,26.5545,-82.1715,1.55,8.5,1111122 
SCCF RECON,ioos:station:SCCF:51:1,2012-01-07T14:00:00Z,26.5545,-82.1715,1.671,8.41,1111122 
SCCF RECON,ioos:station:SCCF:51:1,2012-01-07T15:00:00Z,26.5545,-82.1715,1.81,7.85,1111122 
SCCF RECON,ioos:station:SCCF:51:1,2012-01-07T16:00:00Z,26.5545,-82.1715,1.907,8.24,1111122 
SCCF RECON,ioos:station:SCCF:51:1,2012-01-07T17:00:00Z,26.5545,-82.1715,1.972,7.91,1111122 
SCCF RECON,ioos:station:SCCF:51:1,2012-01-07T18:00:00Z,26.5545,-82.1715,2.01,7.97,1111122 
SCCF RECON,ioos:station:SCCF:51:1,2012-01-07T19:00:00Z,26.5545,-82.1715,1.998,8.25,1111122 
SCCF RECON,ioos:station:SCCF:51:1,2012-01-07T20:00:00Z,26.5545,-82.1715,1.97,8.69,1111122 
SCCF RECON,ioos:station:SCCF:51:1,2012-01-07T21:00:00Z,26.5545,-82.1715,1.949,8.79,1111122 
SCCF RECON,ioos:station:SCCF:51:1,2012-01-07T22:00:00Z,26.5545,-82.1715,1.955,8.65,1111122 
SCCF RECON,ioos:station:SCCF:51:1,2012-01-07T23:00:00Z,26.5545,-82.1715,2.002,8.69,1111122 
SCCF RECON,ioos:station:SCCF:51:1,2012-01-08T00:00:00Z,26.5545,-82.1715,2.069,8.66,1111122 
SCCF RECON,ioos:station:SCCF:51:1,2012-01-08T01:00:00Z,26.5545,-82.1715,2.15,8.51,1111122 
SCCF RECON,ioos:station:SCCF:51:1,2012-01-08T02:00:00Z,26.5545,-82.1715,2.24,7.93,1111122 
SCCF RECON,ioos:station:SCCF:51:1,2012-01-08T03:00:00Z,26.5545,-82.1715,2.32,7.76,1111122 
SCCF RECON,ioos:station:SCCF:51:1,2012-01-08T04:00:00Z,26.5545,-82.1715,2.368,7.65,1111122 
SCCF RECON,ioos:station:SCCF:51:1,2012-01-08T05:00:00Z,26.5545,-82.1715,2.34,7.63,1111122 
SCCF RECON,ioos:station:SCCF:51:1,2012-01-08T06:00:00Z,26.5545,-82.1715,2.27,7.82,1111122 
SCCF RECON,ioos:station:SCCF:51:1,2012-01-08T07:00:00Z,26.5545,-82.1715,2.161,8.23,1111122 
SCCF RECON,ioos:station:SCCF:51:1,2012-01-08T08:00:00Z,26.5545,-82.1715,2.03,8.34,1111122 
SCCF RECON,ioos:station:SCCF:51:1,2012-01-08T09:00:00Z,26.5545,-82.1715,1.889,8.57,1111122 
SCCF RECON,ioos:station:SCCF:51:1,2012-01-08T10:00:00Z,26.5545,-82.1715,1.76,8.63,1111122 
SCCF RECON,ioos:station:SCCF:51:1,2012-01-08T11:00:00Z,26.5545,-82.1715,1.642,8.6,1111122 
SCCF RECON,ioos:station:SCCF:51:1,2012-01-08T12:00:00Z,26.5545,-82.1715,1.562,8.79,1111122 
SCCF RECON,ioos:station:SCCF:51:1,2012-01-08T13:00:00Z,26.5545,-82.1715,1.564,8.71,1111122 
SCCF RECON,ioos:station:SCCF:51:1,2012-01-08T14:00:00Z,26.5545,-82.1715,1.662,8.82,1111122 
SCCF RECON,ioos:station:SCCF:51:1,2012-01-08T15:00:00Z,26.5545,-82.1715,1.8,8.58,1111122 
SCCF RECON,ioos:station:SCCF:51:1,2012-01-08T16:00:00Z,26.5545,-82.1715,1.933,8.09,1111122 
SCCF RECON,ioos:station:SCCF:51:1,2012-01-08T17:00:00Z,26.5545,-82.1715,2.018,8.38,1111122 
SCCF RECON,ioos:station:SCCF:51:1,2012-01-08T18:00:00Z,26.5545,-82.1715,2.05,8.14,1111122 
SCCF RECON,ioos:station:SCCF:51:1,2012-01-08T19:00:00Z,26.5545,-82.1715,2.037,8.31,1111122 
SCCF RECON,ioos:station:SCCF:51:1,2012-01-08T20:00:00Z,26.5545,-82.1715,1.989,8.74,1111122 
SCCF RECON,ioos:station:SCCF:51:1,2012-01-08T21:00:00Z,26.5545,-82.1715,1.941,9.46,1111122 
SCCF RECON,ioos:station:SCCF:51:1,2012-01-08T22:00:00Z,26.5545,-82.1715,1.91,9.49,1111122 
SCCF RECON,ioos:station:SCCF:51:1,2012-01-08T23:00:00Z,26.5545,-82.1715,1.905,9.58,1111122 
SCCF RECON,ioos:station:SCCF:51:1,2012-01-09T00:00:00Z,26.5545,-82.1715,1.95,9.5,1111122 
SCCF RECON,ioos:station:SCCF:51:1,2012-01-09T01:00:00Z,26.5545,-82.1715,2.02,9.26,1111122 
SCCF RECON,ioos:station:SCCF:51:1,2012-01-09T02:00:00Z,26.5545,-82.1715,2.1,8.63,1111122 
SCCF RECON,ioos:station:SCCF:51:1,2012-01-09T03:00:00Z,26.5545,-82.1715,2.191,8.11,1111122 
SCCF RECON,ioos:station:SCCF:51:1,2012-01-09T04:00:00Z,26.5545,-82.1715,2.27,7.99,1111122 
SCCF RECON,ioos:station:SCCF:51:1,2012-01-09T05:00:00Z,26.5545,-82.1715,2.3,7.86,1111122 
SCCF RECON,ioos:station:SCCF:51:1,2012-01-09T06:00:00Z,26.5545,-82.1715,2.24,7.94,1111122 
SCCF RECON,ioos:station:SCCF:51:1,2012-01-09T07:00:00Z,26.5545,-82.1715,2.15,8.17,1111122 
SCCF RECON,ioos:station:SCCF:51:1,2012-01-09T08:00:00Z,26.5545,-82.1715,2.03,8.74,1111122 
SCCF RECON,ioos:station:SCCF:51:1,2012-01-09T09:00:00Z,26.5545,-82.1715,1.89,9.08,1111122 
SCCF RECON,ioos:station:SCCF:51:1,2012-01-09T10:00:00Z,26.5545,-82.1715,1.75,8.97,1111122 
SCCF RECON,ioos:station:SCCF:51:1,2012-01-09T11:00:00Z,26.5545,-82.1715,1.625,8.52,1111122 
SCCF RECON,ioos:station:SCCF:51:1,2012-01-09T12:00:00Z,26.5545,-82.1715,1.52,8.62,1111122 
SCCF RECON,ioos:station:SCCF:51:1,2012-01-09T13:00:00Z,26.5545,-82.1715,1.47,8.68,1111122 
SCCF RECON,ioos:station:SCCF:51:1,2012-01-09T14:00:00Z,26.5545,-82.1715,1.542,8.93,1111122 
SCCF RECON,ioos:station:SCCF:51:1,2012-01-09T15:00:00Z,26.5545,-82.1715,1.67,9.23,1111122 
SCCF RECON,ioos:station:SCCF:51:1,2012-01-09T16:00:00Z,26.5545,-82.1715,1.82,8.13,1111122 
SCCF RECON,ioos:station:SCCF:51:1,2012-01-09T17:00:00Z,26.5545,-82.1715,1.939,8.03,1111122 
SCCF RECON,ioos:station:SCCF:51:1,2012-01-09T18:00:00Z,26.5545,-82.1715,2.011,8.35,1111122 
SCCF RECON,ioos:station:SCCF:51:1,2012-01-09T19:00:00Z,26.5545,-82.1715,2.03,8.25,1111122 
SCCF RECON,ioos:station:SCCF:51:1,2012-01-09T20:00:00Z,26.5545,-82.1715,1.996,8.4,1111122 
SCCF RECON,ioos:station:SCCF:51:1,2012-01-09T21:00:00Z,26.5545,-82.1715,1.949,8.74,1111122 
SCCF RECON,ioos:station:SCCF:51:1,2012-01-09T22:00:00Z,26.5545,-82.1715,1.908,9.29,1111122 
SCCF RECON,ioos:station:SCCF:51:1,2012-01-09T23:00:00Z,26.5545,-82.1715,1.91,9.12,1111122 
SCCF RECON,ioos:station:SCCF:51:1,2012-01-10T00:00:00Z,26.5545,-82.1715,1.938,9.02,1111122 
SCCF RECON,ioos:station:SCCF:51:1,2012-01-10T01:00:00Z,26.5545,-82.1715,1.99,8.75,1111122 
SCCF RECON,ioos:station:SCCF:51:1,2012-01-10T02:00:00Z,26.5545,-82.1715,2.08,8.27,1111122 
SCCF RECON,ioos:station:SCCF:51:1,2012-01-10T03:00:00Z,26.5545,-82.1715,2.18,8.12,1111122 
SCCF RECON,ioos:station:SCCF:51:1,2012-01-10T04:00:00Z,26.5545,-82.1715,2.279,7.97,1111122 
SCCF RECON,ioos:station:SCCF:51:1,2012-01-10T05:00:00Z,26.5545,-82.1715,2.34,7.91,1111122 
SCCF RECON,ioos:station:SCCF:51:1,2012-01-10T06:00:00Z,26.5545,-82.1715,2.35,7.92,1111122 
SCCF RECON,ioos:station:SCCF:51:1,2012-01-10T07:00:00Z,26.5545,-82.1715,2.28,7.97,1111122 
SCCF RECON,ioos:station:SCCF:51:1,2012-01-10T08:00:00Z,26.5545,-82.1715,2.18,8.07,1111122 
SCCF RECON,ioos:station:SCCF:51:1,2012-01-10T09:00:00Z,26.5545,-82.1715,2.04,8.51,1111122 
SCCF RECON,ioos:station:SCCF:51:1,2012-01-10T10:00:00Z,26.5545,-82.1715,1.91,8.51,1111122 
SCCF RECON,ioos:station:SCCF:51:1,2012-01-10T11:00:00Z,26.5545,-82.1715,1.77,8.38,1111122 
SCCF RECON,ioos:station:SCCF:51:1,2012-01-10T12:00:00Z,26.5545,-82.1715,1.65,8.1,1111122 
SCCF RECON,ioos:station:SCCF:51:1,2012-01-10T13:00:00Z,26.5545,-82.1715,1.55,8.27,1111122 
SCCF RECON,ioos:station:SCCF:51:1,2012-01-10T14:00:00Z,26.5545,-82.1715,1.54,8.15,1111122 
SCCF RECON,ioos:station:SCCF:51:1,2012-01-10T15:00:00Z,26.5545,-82.1715,1.635,8.44,1111122 
SCCF RECON,ioos:station:SCCF:51:1,2012-01-10T16:00:00Z,26.5545,-82.1715,1.77,8.56,1111122 
SCCF RECON,ioos:station:SCCF:51:1,2012-01-10T17:00:00Z,26.5545,-82.1715,1.913,8.05,1111122 
SCCF RECON,ioos:station:SCCF:51:1,2012-01-10T18:00:00Z,26.5545,-82.1715,2.011,8.36,1111122 
SCCF RECON,ioos:station:SCCF:51:1,2012-01-10T19:00:00Z,26.5545,-82.1715,2.05,8.22,1111122 
SCCF RECON,ioos:station:SCCF:51:1,2012-01-10T20:00:00Z,26.5545,-82.1715,2.037,8.05,1111122 
SCCF RECON,ioos:station:SCCF:51:1,2012-01-10T21:00:00Z,26.5545,-82.1715,1.98,8.32,1111122 
SCCF RECON,ioos:station:SCCF:51:1,2012-01-10T22:00:00Z,26.5545,-82.1715,1.928,8.77,1111122 
SCCF RECON,ioos:station:SCCF:51:1,2012-01-10T23:00:00Z,26.5545,-82.1715,1.885,9.16,1111122 
SCCF RECON,ioos:station:SCCF:51:1,2012-01-11T00:00:00Z,26.5545,-82.1715,1.86,8.74,1111122 
SCCF RECON,ioos:station:SCCF:51:1,2012-01-11T01:00:00Z,26.5545,-82.1715,1.9,8.72,1111122 
SCCF RECON,ioos:station:SCCF:51:1,2012-01-11T02:00:00Z,26.5545,-82.1715,1.975,9.05,1111122 
SCCF RECON,ioos:station:SCCF:51:1,2012-01-11T03:00:00Z,26.5545,-82.1715,2.06,8.19,1111122 
SCCF RECON,ioos:station:SCCF:51:1,2012-01-11T04:00:00Z,26.5545,-82.1715,2.18,7.93,1111122 
SCCF RECON,ioos:station:SCCF:51:1,2012-01-11T05:00:00Z,26.5545,-82.1715,2.29,7.84,1111122 
SCCF RECON,ioos:station:SCCF:51:1,2012-01-11T06:00:00Z,26.5545,-82.1715,2.33,7.75,1111122 
SCCF RECON,ioos:station:SCCF:51:1,2012-01-11T07:00:00Z,26.5545,-82.1715,2.302,7.6,1111122 
SCCF RECON,ioos:station:SCCF:51:1,2012-01-11T08:00:00Z,26.5545,-82.1715,2.222,7.81,1111122 
SCCF RECON,ioos:station:SCCF:51:1,2012-01-11T09:00:00Z,26.5545,-82.1715,2.109,8.05,1111122 
SCCF RECON,ioos:station:SCCF:51:1,2012-01-11T10:00:00Z,26.5545,-82.1715,1.99,8.19,1111122 
SCCF RECON,ioos:station:SCCF:51:1,2012-01-11T11:00:00Z,26.5545,-82.1715,1.86,8.14,1111122 
SCCF RECON,ioos:station:SCCF:51:1,2012-01-11T12:00:00Z,26.5545,-82.1715,1.7,7.74,1111122 
SCCF RECON,ioos:station:SCCF:51:1,2012-01-11T13:00:00Z,26.5545,-82.1715,1.644,7.58,1111122 
SCCF RECON,ioos:station:SCCF:51:1,2012-01-11T14:00:00Z,26.5545,-82.1715,1.711,7.64,1111122 
SCCF RECON,ioos:station:SCCF:51:1,2012-01-11T15:00:00Z,26.5545,-82.1715,1.805,7.74,1111122 
SCCF RECON,ioos:station:SCCF:51:1,2012-01-11T16:00:00Z,26.5545,-82.1715,1.965,7.45,1111122 
SCCF RECON,ioos:station:SCCF:51:1,2012-01-11T17:00:00Z,26.5545,-82.1715,2.136,7.38,1111122 
SCCF RECON,ioos:station:SCCF:51:1,2012-01-11T18:00:00Z,26.5545,-82.1715,2.24,7.29,1111122 
SCCF RECON,ioos:station:SCCF:51:1,2012-01-11T19:00:00Z,26.5545,-82.1715,2.277,7.29,1111122 
SCCF RECON,ioos:station:SCCF:51:1,2012-01-11T20:00:00Z,26.5545,-82.1715,2.284,7.29,1111122 